Resultado Oficial do Concurso 6ª Semana de Escutas em Onda Curta realizados dias de 17 a 25 de novembro de 2018

Classificação

1º Itamar Nunes de Assis (INA) (8.090 pontos) Cuiabá, Mato Grosso – Brasil
2º Francisco Jacson dos Santos (FJS) (5.210 pontos) Iguaba Grande, Rio de Janeiro – Brasil
3º Antonio Avelino da Silva (AAS) (4.000 pontos) Caruaru, Pernambuco – Brasil
4º José Ronaldo Xavier (JRX) (3.860 pontos) Cabedelo, Paraíba – Brasil
5º Gustavo Santos (GS) (3.500 pontos) Cabo de Santo Agostinho – Pernambuco – Brasil


Seq. Freq. (kHz), Data, Hora (UTC), ITU, Emissora/Detalhes, SINPO

01 5830 17/11/2018 00:01 00:10 USA WTWW, OM Talks EE, conversa sobre socialismo e comunismo, inimigos de Deus e inimigos do povo de Deus 25322
02 5875 17/11/2018 00:12 00:25 G BBC Yls EE, entrevista, 45444
03 5890 17/11/2018 00:27 00:34 KWT VOA OM, YL talks Tibetano, interferência r. não identificada 34443
04 5935 17/11/2018 00:40 00:48 USA WWCR OM EE, id, músicas 35443
05 5952 17/11/2018 00:50 00:58 BOL Rádio Pio XII Oms em Quechua (prov.), id, cit. Potosi, 35333
06 5970 17/11/2018 01:00 01:11 USA WEWN Talks SS, id, WEWN Radio Católica Mundial, 35443
07 6000 17/11/2018 01:12 01:27 TUR Voice of Turkey Mx turca, 35443
08 5910 17/11/2018 01:30 01:37 ROU R. Romênia Internacional NX esportes em romeno, ID, an. de concurso, site, Magazin RRI Plus. 45444
09 6060 17/11/2018 01:38 01:53 CUB R. Habana Cuba, Talks SS, noticias esportivas, baseball campeonato cubado 58ª serie nacional de baseball, 35443
10 7305 17/11/2018 01:54 02:00 USA R. Vaticano Com. Abt migração em SS, id, vatican news, off 02:00 UTC 45444
11 9410 17/11/2018 02:03 02:12 TUR Voice of Turkey, NX internacionais em SS, nx sobre morte do jornalista saudita na Turquia, Prensa turca de hoy. 45544
12 5940 17/11/2018 12:20 12:29 B R. Voz Missionária Musica evangélica, campanha Natal Missionário de Fé, 24332
13 9550 17/11/2018 12:40 12:56 B R. Boa Vontade Comentários religiosos de Paiva Neto.
14 11815 17/11/2018 12:58 13:10 B R. Brasil Central, Noticias, temperatura em Goiânia 23º, id. RBC Goiânia, frequências, zye440 11815 OC. Mx Martinho da Vila, mxs sertanejo universitário. 45444
15 11895 17/11/2018 13:11 13:17 B R. Boa Vontade, id, 2 Joao, cap. 34 - "Amai-vos como eu vos amei". Px "Soldadinhos de Deus" 45544
16 13780 17/11/2018 13:19 13:26 CUB R. Habana Cuba, Id, R. Habana Cuba, talks SS OM YL, Sobre saude, Medicos cubanos no Brasil. 35432
17 21505 17/11/2018 13:27 13:50 ARS BSKSA - MX árabe, OM AA, idahat… 45544
18 9665 17/11/2018 14:12 14:21 B R. Voz Missionária, Previsão do tempo, no RS, no Sul e Sudeste, 18º em POA mínima. PX Entre Cozinha e Histórias, com Teresa Klein - Leite Condensado. Noticias, Khmer Vermelho, Brexit, Wikileaks, Julian Assange, participação RFI de Paris, Agencia Radio Web,45444
19 15300 17/11/2018 14:30 15:00 CVA VOA OM YL talks in kirundi, mx, off 15:00 UTC 35433
20 15140 17/11/2018 15:00 15:10 CUB R. Habana Cuba id. R. Habana Cuba, SS RHC, "desde la Habana y por el mundo", 25432
21 17660 17/11/2018 15:12 15:36 ARS BSKSA - YL FF, traduzindo do AA, PX FF 45544
22 17830 17/11/2018 16:04 16,12 ASC BBC BBC World Service, id, notícias esportivas da África, África Cup of Nations 45544
23 17730 17/11/2018 16:13 16:23 MDG AWR, id "keep listening to AWR", ann. adress and e-mail, website, EE, mx, Comentários religiosos em EE. 35433
24 15490 17/11/2018 18:15 18:30 ASC BBC BBC FF para África, id BBC Afrique. 45544
25 15155 17/11/2018 18:31 18:37 CLN AWR Passagem bíblica em EE, Ida dos irmãos e pai de José indo para o Egito. Id. 45544
26 15400 17/11/2018 18:38 18:45 ASC BBC BBC EE to Africa 45444
27 9630 17/11/2018 21:35 21:45 B R. Aparecida Encontro DX, memória musical, id 45444
28 11855 17/11/2018 21:45 21:53 B R. Aparecida Encontro DX, memória musical, id 24332
29 15580 17/11/2018 21:55 22:00 USA R. Marti Mx, id, SS, off at 22:00 UTC 35443
30 11665 17/11/2018 22:04 22:23 J R. Japan OM YL in Japanese… 35433
31 11760 17/11/2018 22:25 22:32 CUB R. Habana Cuba, YL in SS, comentário sobre o bloqueio econômico de EUA a Cuba. Comentário sobre no novo presidente do Brasil, na visão cubana é um extremista. Id. "RHC, una senal de amistad" 35333
32 11800 17/11/2018 22:33 22:45 ROU RRI, Mx romena, id "estan sintonizando RRI", px Radio Abierta - feria de libros, SS. 45554
33 12050 17/11/2018 22:47 23:00 USA EWTN, Pregação religiosa em espanhol. Palabra de Deus fonte de vida". Id "Radio Católica mundial" 45444
34 9515 17/11/2018 23:01 23:11 B R. Marumby id, ann. Qrg, ann. Copel, Musical Evangélico px, hino "Breve virá". 35433
35 9590 17/11/2018 23:13 23:28 CHN CRI, SS, aquecimento global, 4 de cada 10 desapareceram por causa do homem. Px "Al ritmo de China". 35443
36 10000 17/11/2018 23:30 23:36 B Observatório Nacional Hora certa de Brasília, 21:32:00 YL, leve interferência do WWV 24432
37 7850u 17/11/2018 23:45 23:57 CAN CHU Canada Id, CHU Canada hora UTC em EE e FF, time pips. Id em EE e FF. 25442
38 7435 18/11/2018 00:10 00:35 USA R. Martí Comentários sobre Cuba em SS. Id. 35333
39 6080 18/11/2018 11:50 12:00 B R. Marumby, Mx religiosa, Momento da Oração, id. Qrg, R. Marumby, a emissora da Paz, ann. Estúdio Estrela da Manhã. 35443
40 6010 18/11/2018 12:05 12:15 B R. Inconfidência Mx funk, id e frequências da R. Inconfidência, 24432
41 12140 18/11/2018 12:20 12:30 KWT R. Azadi OM talks, "salam aleikum", Kandahar, //15640kHz, Pashto. 24332
42 12110 18/11/2018 12:32 12:42 KWT R. Mashaal YL talks, prov. Pashto, 34433
43 17620 18/11/2018 12:45 12:53 F RFI OM FF, Fundation Koffi Anam, nx s/ Africa //21580 kHz 45544
44 6135 19/11/2018 20:00 20:10 B R. Aparecida id, Celebra martires, Alfonso del Valle, canção, Missa. 34443
45 11810 19/11/2018 20:34 20:43 ASC BBC Nx, entrevistas em EE 35443
46 12055,8 19/11/2018 23:27 23:35 PHL FEBC Radio Musica, OM talks em Palaug, interferência de EWTN em SS. 33443
47 12015 19/11/2018 23:38 23:45 KRE Voice of Korea OM talks in coreano, musica 24332 48 6180 20/11/2018 00:15 00:26 B R. Nacional da Amazônia, Comentários sobre Campeonato Brasileiro, Jogo da Seleção Brasileira vs Camarões. Px Eu de Cá Você de lá. Id. 45544
49 6115 20/11/2018 00:30 00:47 USA WWCR OM tlaks in EE, 45444
50 6100 20/11/2018 00:48 00:55 CHN CRI Lição de chinês px em PP, ann. Freq. e horários de px em PP 45544
51 17690 20/11/2018 14:45 15:00 F R. Nigeria Kaduna OM talks in Hausa 24332
52 17770 20/11/2018 15:05 15:30 AFS Channel Africa OM talks in Swahili 24222
53 17775 20/11/2018 15:32 15:40 USA KVOH Voice of Hope mx religiosas em SS 35333
54 17895 20/11/2018 15:41 15:52 STP VOA mx in EE, Om talks. 35443
55 21525 20/11/2018 19:40 20:00 USA R. Africa Network Px releigioso in EE, ID, ann endereço. 35543
56 11965 20/11/2018 21:02 21:19 MDG KNLS, px programa palavra alegre, mx in EE, mx PP, comm. Casamento. Id vc está escutando o px palavra alegre. Dics de inglês com Richard Andrade. 35543
57 12030 22/11/2018 21:10 21:21 E R. Exterior de Espana Entrevist em SS, id REE, entrevista com Fernado Gutierrez, //11940 kHz 35433
58 11980 22/11/2018 22:18 22:37 GUM KSDA Mx infantil em chinês, ann. Freq. endereço, mx, YL em chinês, 45544
59 11955 22/11/2018 22:40 22:59 GUM KSDA OM em indonésio, off 22:59 45444
60 11850 22/11/2018 23:05 23:30 MRA R. Free Ásia OM em Khmer, entrevistas, ann. Freq, endereço. 24332
61 9335 22/11/2018 23:40 23:56 PHL VOA OM em Burmese, entrevista em EE sendo traduzida, YL id VOA, 35443
62 9570 23/11/2018 00:02 00:10 ALB CRI Noticias em EE, 25332
63 7260 23/11/2018 00:12 00:20 IRN Voz da Rep. Isl. do Irã Comentários religiosos em FF, shuras, off 00:20 35433
64 15000 23/11/2018 02:01 02:08 HWA WWVH Time signal female voice EE 25332
65 9955 23/11/2018 02:10 02:25 USA WRMI – IBC Radio, Programa Dx em EE, anunciando várias frequências de rádio px DX Week, Dx de radioamadores em seguida px “425 DX News” Gabriele, id “This is IBC – Italaian Broadcasting Corporation ...” 45544
66 9820 23/11/2018 02:27 02:33 B R. 9 de Julho, Rede Aparecida de Rádio, interferência de rádio chinesa, id. Como Radio Aparecida, px “Com a Mãe Aparecida” 44343
67 9565 23/11/2018 02:35 00:43 B R. Tupi / Super R. Deus é Amor Mx religiosa, hora certa 00:41 px “Voz da Libertação”, mx “Me abraça”, 45444
68 6190 23/11/2018 02:47 02:55 MDG KNLS, Comentários bíblicos em SS sobre escavações em Cafarnaum, leve interferência, la sinagoga que Jesus ensinou foi edificado em parte por um soldado romano, px Arqueologia Bíblica. La voz Alegre, Iglesia de Cristo. Off 02:55 44444
69 6155 23/11/2018 03:00 02:08 ROU RRI Noticias em SS de RRI, id, interferencia da Channel África em EE 33433
70 6105 23/11/2018 03:09 03:15 J NHK R. Japan OM em Japones 35443
71 6090 23/11/2018 03:17 03:30 AIA Caribean Beacon Pregação religiosa em EE por YL.
72 12050 23/11/2018 19:20 19:45 ASC R. Ndarason International OM em Kananuri, mx, 34443
73 11930 23/11/2018 19:49 20:00 USA R. Martí Entrevista em SS, //13820, 35443
74 12075 23/11/2018 20:20 20:28 BOT VOA, OMFF, entrevista, id, off at 20:28, this is the voice of America, Washington DC, sign off 35443
75 7585 23/11/2018 20:35 20:46 THA R. Farda YL, OM talks em Persa, id, 34333
76 7495 23/11/2018 20:48 21:00 UZB North Korea Reform Radio YL, OM em coreano, mx. 25332
77 7475 23/11/2018 21:03 21:15 THA R. Thailand YL em Tailandes, off 21:15 35543
78 7300 23/11/2018 21:35 21:45 G HCJB - R.Akhbar Mufriha OM em Árabe, indicação de endereço, off at 21:45 35433
79 7280 23/11/2018 21:47 21:55 VTN The Voice of Vietnam PX em EE, OM YL talks, //9730, entrevista, mx 24332
80 7230 23/11/2018 22:02 22:10 CHN CNR 1 YL, OM em Chinês 33433
81 7240 23/11/2018 22:12 22:42 CHN PBS Xizang mx em chinês(?), YL talks em chinês, entrevista. 35433
82 7260 23/11/2018 22:45 22:56 CHN CRI Aula de chinês, px em PP //9410, 9685 55555
83 5850 23/11/2018 23:02 23:25 USA WRMI – R. Tirana Nx em EE, YL talks, Macedônia, Monte Negro, mx, id. 24332
84 9100 24/11/2018 00:03 00:14 USA Echo of Hope VOH OM, YL em coreano 35433
85 9265 24/11/2018 00:16 00:30 USA WINB OM em EE, pregação religiosa. 25332
86 9420 24/11/2018 06:20 06:30 GRC Helliniki Radiophonia YL em grego, mxs 35443
87 6155 24/11/2018 06:32 06:40 AUT R.OESTERREICH INT. nx em alemão, YL, OM, guten morgen, mx valsa (?), 45544
88 5925 24/11/2018 06:42 06:50 F RFI Nx em FF, entrevista, //7390, 9790, 11700, 13695, 15300, 45544
89 5960 24/11/2018 06:51 07:00 ASC R. Ndarason International Nx e entrevista sobre Boko Haram em FF, id 35433
90 7255 24/11/2018 07:05 07:22 NIG VOICE OF NIGERIA Nx em FF, OM, mx, id by YL 35433
91 9650 24/11/2018 07:27 07:40 F R. Guinee, Mx em FF, interferência R. Voice of Korea, id “Radio Guinee” ann de frequência FM, ministério de segurança e proteção civil. Ann de 33433
92 9875 24/11/2018 07:42 07:50 KRE Voice of Korea OM, YL em russo, musica, id “golos karee”(?) 35433
93 11530 24/11/2018 07:51 08:00 MDA Voice of Welt OM em curdo, mx,
94 6155 24/11/2018 08:10 08:20 KOR KBS YL em Japonês, mxs //7275, 9570 34443
95 11965 25/11/2018 11:10 11:41 GUM KTWR OM EE pregação religiosa 25332
96 15330 25/11/2018 11:49 11:55 PHL FEBC Radio OM em Karen 24322
97 11745 25/11/2018 20:50 21:03 ARS Al-Azm Radio OM em árabe, prov Corão //11820, 11915 35443
98 11860 25/11/2018 21:05 21:13 ARS Rep. Yemen Radio YL em arabe, mx tipica 35543
99 7360 25/11/2018 21:16 21:24 CVA R. Vaticano px em PP pra África, YL, mx id 45544
100 5915 25/11/2018 21:28 21:38 ZMB Zambia NBC Radio OM em ???, língua africana, ouvinte/repórter no telefone, mx (tambores). 24332
101 6040 25/11/2018 21:45 21:55 F R. Algerienne OM em árabe, interferência de emissora chinesa, YL FF. 23432

Dxista: Itamar Nunes de Assis (INA) (8.090 pontos)
Local das escutas: Cuiabá, Mato Grosso – Brasil
Receptor: Icom IC-R75 /Yaesu FRG-8800 /Drake SW8
Antena: LW 20m / FRA-7700 /Telescópica

____________________________________________

Seq. - Freq. - (KHz) - Hora (UTC) - ITU – Emissora/Detalhes – SINPO

1° 9.590 KHz 17/11/2018 02:50 CHN Rádio Int. da China NX, MV ponto de acesso em idioma espanhol. 54445
2° 9.410 KHz 17/11/2018 02:55 TUR Voz da Turquia MX em idioma espanhol. 43334
3° 11.710 KHz 18/11/2018 03:00 CHN Rádio Int. da China NX, FV em idioma russo 43334
4° 9.740 KHz 18/11/2018 03:05 ROU Rádio Roménia Int. NX, FV em idioma espanhol 54445
5° 5.935 KHz 18/11/2018 03:15 TIB PBS Xizang NX, FV em idioma chinês 43334
6° 7.235 KHz 18/11/2018 20:13 ROU Rádio Roménia Int. NX, FV, MX em idioma espanhol 54445
7° 11.810 KHz 18/11/2018 20:21 USA BBC NEWS NX, MV MX em idioma inglês 53445
8° 12.050 KHz 18/11/2018 20:29 ASC Rádio Ndarason int. MX, FV em idioma Kanury 54445
9° 7.265 KHz 18/11/2018 20:35 CHN Rádio Int. da China NX, MV em idioma italiano 54445
10° 7.295 KHz 18/11/2018 20:40 CHN Rádio Int. da China NX, MV em idioma inglês 54445
11° 9.740 KHz 18/11/2018 20:50 CHN Rádio Int. da China NX, MV em idioma chinês 54445
12° 9.535 KHz 18/11/2018 20:56 MRA Rádio Free Ásia (música instrumental) 55555
13° 6.020 KHz 18/11/2018 21:02 CHN Rádio Int. da China NX, FV ( la China hoy) 55555
14° 11.800 KHz 18/11/2018 22:50 ROU Rádio Roménia Int. MX em idioma espanhol 54445
15° 17.660 KHz 21/11/2018 15:50 ARS Rádio Saudi Int. NX, FV em idioma francês 54445
16° 15.400 KHz 21/11/2018 16:00 USA BBC NEWS NX, MV/FV em idioma inglês 54445
17° 15.300 KHz 21/11/2018 16:07 (F) Rádio França Int. NX, MV em idioma inglês 43334
18° 17.560 KHz 21/11/2018 17:06 ARS Rádio Saudi Int. (MX, canto musical em árabe) 54445
19° 13.605 KHz 21/11/2018 17:16 IND ALL Índia Rádio MX em idioma Hindu 54445
20° 13.740 KHz 21/11/2018 17:30 (F) Rádio França Int. NX em idioma francês 43334
21° 13.730 KHz 21/11/2018 17:36 (J) NHK World Japão NX, MV/FV em idioma swahili 54445
22° 9.535 KHz 24/11/2018 20:26 MRA Rádio Free Ásia (música instrumental) 54445
23° 9.865 KHz 24/11/2018 20:39 CHN Rádio Int. da China NX, FV em idioma chinês 54445
24° 9.870 KHZ 24/11/2018 20:45 ARS Rádio Saudi MX em idioma árabe 53445
25° 9.565 KHz 24/11/2018 20:50 USA Rádio Martí NX, FV em idioma espanhol 43334
26° 11.965 KHz 24/11/2018 21:00 MDG World Christian Broadcasting (KLNS) PX (palavra alegre), abra sua bíblia, vida com propósito e livro dos salmos programa com conteúdo cristão envolvendo mensagens e canções em idioma português. 54445
27° 11.610 KHz 24/11/2018 21:15 MDG World Christian Broadcasting (KLNS) Locução de FV/MV em idioma chinês 43334
28° 9.530 KHz 24/11/2018 21:57 ASC HCJB Rádio Akhbar Mufriha Locução deFV/MV em idioma (Pulaar) 54445
29° 11.980 KHz 24/11/2018 02:23 CHN Rádio Int. da China MX em idioma russo 54445
30° 6.190 KHz 24/11/2018 02:49 MDG World Christian Broadcastin (KLNS) PX (arqueologia da bíblia) em idioma espanhol Programa com conteúdo cristão. 54445
31° 11.710 KHz 25/11/2018 03:06 CHN Rádio Int. da China NX, MV em idioma russo 54445
32° 9.740 KHz 25/11/2018 03:30 ROU Rádio România Int. PX/FV (entrevista) em idioma espanhol 53345
33° 6.195 KHz 25/11/2018 04:03 (J) NHK World Japão NX MV/FV em idioma espanhol 44344
34° 7.215 KHz 25/11/2018 19:33 CHN Rádio Int. da China NX FV em idioma (cantonês) 54445
35° 7.350 KHz 25/11/2018 19:39 CHN Rádio Int. da China NX em idioma francês 54445
36° 9.870 KHz 25/11/2018 19:50 ARS Rádio Saudi (músicas em idioma árabe) 54345
37° 5.890 KHz 25/11/2018 19:59 MRA Rádio Free Ásia (músicas instrumentais) 43444
38° 6.020 KHz 25/11/2018 20:05 CHN Rádio Int. da China FV/MV PX em idioma (polish) 54445
39° 7.205 KHz 25/11/2018 20:11 (F) Rádio França Int. MX´s em idioma francês 54345
40° 5.920 KHz 25/11/2018 20:23 ROU Rádio România Int. Loc. FV em idioma espanhol NX sobre o festival internacional das orquestras 43344
41° 6.100 KHz 25/11/2018 20:30 CHN Rádio Int. da China MX e PX em idioma árabe 44344
42° 7.265 KHz 25/11/2018 20:36 CHN Rádio Int. da China NX MV em idioma italiano 54445
43° 9.625 KHz 25/11/2018 20:45 TUR Voz da Turquia NX, MV em idioma francês 54445
44° 9.720 KHz 25/11/2018 20:54 CHN Rádio Int. da China NX FV em idioma búlgaro 54445
45° 11.965 KHz 25/11/2018 21:00 MDG World Christian Broadcasting (KLNS) PX (palavra alegre) em idioma português com conteúdo cristão (reflexão da bíblia) 54445
46° 7.350 KHz 25/11/2018 22:00 CHN Rádio Int. da China MX/FV em idioma francês 44434
47° 9.685 KHz 25/11/2018 22:06 CHN Rádio Int. da China PX (top 10 músicas da china) PX em idioma português. 54345
48° 9.565 KHz 25/11/2018 22:27 USA Rádio Martí PX MV FV em idioma espanhol 44434
49° 9.690 KHz 25/11/2018 22:42 (E) Rádio Exterior da Espanha FV MX em idioma espanhol 43344
50° 9.795 KHz 25/11/2018 23:27 PHS FEBC Rádio MX Loc. MV 33343

Abreviações:
MXS: Músicas
MV: Voz masculina
FV: Voz feminina
NX: Notícias

DXista: Gustavo Santos (GS) (PY7143SWL) (3.500 pontos)
Local das escutas: Cabo de Santo Agostinho – Pernambuco – Brasil
Receptor: Tecsun PL660 Antena: Telescópica – Long wire

____________________________________________

Número seqüencia/ Frequência/ Data/ Horário/ Nome da emissora/ Detalhes da escuta/ SINPO.

1_5915. 17/11/2018, 0306-0316, Zambia NBC-Radio 1, Lusaka-ZMB, em Vernacular. Locuções em vozes masculina e feminina; 0313 Um trecho de música tribal. Recepção pobre, 35422.
2_9925. 17/11/2018, 1900-1930, Radyo Pilipinas, Tinang-PHL, em Tagalog. Locução feminina e cita palavras como; família, possibilidad e highschool; 1919 Uma canção; 1928 Locução masculina, ID-PBS, The Voice of Philippines, Oversea Service, frequências e encerra com trecho do National Anthem. Emissora chegando ótima por aqui, nesta nova frequência, 45554.
3_9910. 17/11/2018, 1931-1945, All India Radio, Delhi-IND, em Inglês. Locução feminina, ID e música; 1935 Locução masculina, ID, website e música; 1943 ID, AIR sked em inglês; 1945 Finais da edição, seguido do IS. Ótima recepção entre nós, 45554.
4_7310. 17/11/2018, 2000-2010, Adventist World Radio, Moosbrunn-AUT, em Diúla. IS, ID; Uma música; 2004 Pregação religiosa em voz masculina, seguida de uma música. AWR com boa recepção entre nós, 45544.
5_9605. 18/11/2018, 0122-0159, KBS World Radio, Furman-SC, em Espanhol. Programa "Cine en la Radio" em voz feminina; 0126 Programa dedicado aos ouvintes, "Buzón del Radioescucha"- correspondências, IR e música, uma balada coreana "Carta de Otoño"; 0133 "Literatura en Audio"; 0149 Um espaço dedicado à gastronomia coreana, "Con Sabor Ardente"; 0156 Finais da edição, uma canção, ID, e-mail, etc. KBS com ótima recepção, 45554.
6_9410. 18/11/2018, 0200-0255, La Voz de Turquía, Emirler-TUR, em Espanhol. Locução masculina: ID, sked da VOT em espanhol; 0216 Perspectiva Global; Músicas turcas; 0240 "La Pregunta del Més"; Músicas; 0251 Los Titulares del Día, sked da VOT em espanhol, endereços e IS às 0255, encerrando a edição. VOT com ótima recepção neste B18, 45554.
7_13820. 18/11/2018, 1755-1835, Radio Martí, Greenville-NC, em Espanhol. Uma repórter, desde a ONU, fala sobre as migrações humanas na atualidade; Outras reportagens que compõem o "Noticiero del Medio Día" en nesta edición: Médicos cubanos no Brasil e as consequências de suas saídas; A ONU e os Direitos Humanos em Cuba, especialmente aos presos políticos. 1830 "Vida con la Historia"- temas sobre a história cubana. Radio Martí com ótima recepção nesta frequência, 45554
8_12050. 18/11/2018, 1836-1848, Radio Ndarason International, Ascensão-G, em Kanuri. Locutor realiza uma entrevista com um senhor, gravada, com certeza. Ao fundo, ouvem-se os cantares de vários galos, nesta inusitada gravação! ID. Emissora chegando ótima por aqui, 45554.
9_9380. 18/11/2018, 1849-1915, All India Radio-National Channel, Aligarh-IND, em Hindi. Locutora apresenta um programa com músicas indianas tradicionais; 1905 Locução feminina, ID e música. Emissora com recepção satisfatória entre nós, 45433.
10_9940. 18/11/2018. 1916-1940, TWR África, Manzini-SWZ, em Lingala. Hino interpretado por Coral; 1934 Locução masculina, um breve trecho musical e IS às 1935, seguido de locução masculina, ID e início de programa em francês. TWR com recepção satisfatória esta tarde em Cabedelo, 35433.
11_9940. 20/11/2018. 1925-1935, TWR África, Manzini-SWZ, em Lingala. Pregação religiosa cristã em locução masculina e feminina; 1934 IS, ID e final da editados às 1935. TWR com recepção pobre nesta tarde, 35432.
12_13695. 20/11/2018, 1939-1945, All India Radio, Bangalore-IND, em Inglês. Uma música; Locução feminina: ID, sked da AIR em inglês e as áreas-alvos; 1945 IS. AIR tem boa recepção nesta frequência, 45444.
13_7335. 20/11/2018, 1946-1956, Radio Internacional da China, Jinhua-CHN, em Português. Aula de Chinês por locutor e locutora; 1953 ID, website, sked da CRI em português e IS às 1956. Boa recepção por aqui, 45444.
14_6170. 20/11/2018, 2002-2013, Radio Algerienne, Issoudun-F, em Árabe e Francês. Locutor e locutora apresentam as noticias e presença da participação de reportagens externas, todas em árabe. Emissora com recepção satisfatória entre nós, 35433.
15_7380. 20/11/2018, 2015-2023, Radio France Internationale, Issoudun-F, em Hauçá. Locuções masculina e feminina; Locução feminina e breves trechos de música; ID. RFI com boa recepção por aquí, 45444.
16_9950. 21/11/2018, 0221-0235, All India Radio, Bangalore-IND, em Nepalês. Locutor fala; ID; 0230 Locução feminina, ID e um breve trecho musical. Pobre recepção por aquí, 25322.
17_7410. 21/11/2018, 0238-0245, Radio Roumanie Internationale, Galbeni-ROU, em Francês. Locução masculina e uma canção folclórica romena; Locutor fala, ID. Recepção satisfatória entre nós, 35433.
18_11965. 21/11/2018, 2022-2032, MWV-African Pathways Radio, Mahajanga-MDG, em Inglês. Uma música, um jazz; 2024 Locução masculina; 2026 ID and frequency e segue-se um breve trecho de música e locutor falando na Bíblia. Emissora com bom sinal e modulação satisfatória entre nós, 45433 (Em alguns momentos, 45444).
19_9720. 21/11/2018, 2033-2043, China Radio International, Urumqi-Changji-CHN, em Búlgaro. Locução feminina; 2040 Locução masculina. CRI com boa recepção nesta frequência, 45544.
20_9855. 21/11/2018, 2045-2055, NHK World Japan, Talata-Volonondry-MDG, em Francês. Locução feminina e breves trechos de música e segue-se uma conversação entre locutora e um convidado expert em música clássica, presumivelmente e alguns rápidos trechos de música; 2058 Locução feminina, ID e finais da edição. Radio Japan com boa recepção nesta frequência e horário, 45444.
21_6090. 22/11/2018, 0148-0158, Pars Today, Sirjan-IRN, em Espanhol. Locutor e locutora apresentam noticias e comentários desde latinoamérica; 0153 Uma entrevista no espaço "Actualidad Política"- uma repórter entrevista uma autoridade. Recepção pobre, 25422.
22_6060. 22/11/2018, 0200-0210, Radio Habana Cuba, Bauta-CUB, em Espanhol. ID; Noticiário: los titulares y en detalles, em locuções masculina e feminina; 0208 Locução masculina em anúncio de programação: programa "Desde Habana". Recepção satisfatória por aquí, 35433.
23_6015. 22/11/2018, 0212-0220, PBS Xinjiang, Urumqi-Changji-CHN, em Cazaque. Locução feminina, acompanhada de breves trechos de música cazaque. Recepção pobre, 35322.
24_6000. 22/11/2018, 0221-0230, Radio Habana Cuba, Quivican-CUB, em Inglês. Música cubana; 0224 Locução masculina, ID, seguido de um comentário político. Recepção muito pobre desta transmissão, 25422.
25_5975. 22/11/2018, 0235-0245, Adventist World Radio, Moosbrunn-AUT, em Punjabi. Pregação religiosa por locução feminina; 0239 Locução masculina em pregação religiosa, suponho; ID. AWR tem recepção satisfatória nesta transmissão, 35433.
26_5940. 22/11/2018, 0246-0256, Radio Voz Missionária, Camboriú-SC. Pastor faz uma pregação religiosa cristã dedicada aos fiéis, com alguns momentos de excitação nas palavras. Recepção satisfatória entre nós, 35433.
27_5935. 22/11/2018, 0302-0310, WWCR-Programa "Dr. Gene Scott", Nashville-TN, em Inglês. Pregação religiosa pelo falecido Pastor Eugene Scott, em edição gravada; 1306 ID e breves falas em locução masculina; 0309 Retorna Dr. Gene em sua pregação. WWCR com bom sinal e modulação satisfatória, 45433.
28_5920. 22/11/2018, 0311-0330, WHRI-Programa "News and Music", Furman-SC, em Inglês. Músicas; 0328 Locuções masculina e feminina; 0329 ID, website e final da edição. Recepção satisfatória, 35433
29_5910. 22/11/2018, 0353-0400, China Radio International, La Habana-CUB, em Inglês. Aula de Chinês na apresentação de locutor e locutora; 0359 ID em chinês e inglês; IS. CRI com bom sinal e modulação satisfatória, 45433.
30_5890. 22/11/2018, 0401-0410, WWCR, Nashville-TN, em Inglês. ID em locução masculina; Pastor faz um sermão, presumivelmente. Recepção pobre em Cabedelo, 35422
31_6195. 22/11/2018, 0411-0422, NHK World Japan, Furman-SC, em Espanhol. Boletim Informativo em locuções masculina e feminina; 0415 Programa "Palabra Clave"- Uma palavra japonesa e suas perspectivas. Boa recepção desta transmissão da Radio Japón, 45444.
32_5875. 22/11/2018, BBC, Woofferton-G, em Árabe. Locuções masculina e feminina; 0426 Notícias, suponho, em locução feminina; Manifestações populares durante as noticias; 0430 ID and News by male announcer. BBC com recepção satisfatória, 45433.
33_12140. 25/11/2018, 0213-0225, Ashna Radio, Udon-Thani-THA, em Dari. Locução masculina; 0215 Locuções feminina e masculina durante a escuta. Recepção pobre desta transmissão VOA Dari Service, 25422.
34_12045. 25/11/2018, 0227-0235, CNR1, Beijing-Matoucun-CHN, em Chinês. Locução masculina; 2030 Time pips, ID e locução masculina, noticias ?.Recepção com sinal satisfatório e modulação pobre, 35422.
35_12055. 22/11/2018, 0236-0303, CNR17, Lingshi-CHN, em Cazaque. Locuções masculina e feminina; 0240 Locução masculina com fundo musical da canção "Don´t cry for me Argentina", ao piano; Trechos musicais de canções cazaques. Emissora com ótima recepção por aquí, 45554.
36_11915. 25/11/2018, 0304-0314, CNR2-China Business Radio, Baoji-Sifangshan-CHN, em Chinês. Locutor e locutora falam, intermitentemente, com fundo musical e inserções de áudio, assemelhando-se a anúncios comerciais. Recepção satisfatória entre nós, 35433.
37_11950. 25/11/2018, 0315-0325, PBS Xizang, Lhasa-Tibet-CHN, em Chinês. Conversação semelhante a uma peça de radioteatro, com participação de vozes masculina e feminina, choros e fundo musical. Recepção pobre por aquí, 25322.
38_11980. 25/11/2018, 0326-0336, CNR1-Jammer/Firedrake, xx-CHN, em Chinês. Locuções masculina e feminina; 0330 Time pips e continuam as falas, sem pausa entre elas. Recepção satisfatória, 35433.
39_9410. 25/11/2018, 0735-0750, BBC, Ascensão-G, em Inglês. Locutor e locutora apresentam BBC Notícias; ID. Ótima recepção por aquí, 45554.
40_17805. 25/11/2018, 1013-1025, BSKSA, Riyadh-ARS, em Árabe. Locutor em conversação com um senhor árabe; 1020 Música árabe, pequeno trecho. Recepção com sinal bom e modulação satisfatória, 45433.
41_7255. 25/11/2018, 1945-1957, China Radio International, Kashgar-CHN, em Turco. Cantora interpreta uma canção; Locução feminina e outra música; Locução masculina, final da edição e IS. Boa recepção da CRI neste horário e frequência, 45444.
42_12160. 25/11/2018, 2000-2010, WWCR, Nashville-TN, em Inglês. Pastor faz um sermão. Recepção satisfatória entre nós, 35433.
43_7205. 25/11/2018, 2011-2025, Radio France Internationale, Issoudun-F, em Francês. Locução feminina, notícia sobre futebol, fala no PSG; ID e música; 2015 Apresentadora faz uma entrevista com um pianista, seguida da execução de uma música, ao piano,certamente. RFI com ótima recepção nesta frequência, 45554.
44_7235. 25/11/2018, 2029-0245, Radio Rumania Internacional, Tsiganechti-ROU, em Espanhol. Locutora fala sobre uma "Encuesta RRI", ID e endereços; 2035 Início do programa "Rincón Diexista" conduzido por Victoria Sepciu. RRI com recepção satisfatória nesta tarde em Cabedelo, sofrendo leve interferência da Radio Nigeria Kaduna, na mesma frequência e em hauçá, 34433.
Escuta paralela em 5920kHz, Tsiganechti-ROU, 35422.

Dexista: José Ronaldo Xavier (JRX) - PR7036SWL (3.860 pontos)
Local das escutas: Cabedelo, Paraíba – Brasil
Receptor (es): Degen DE1103, Sony ICF-SW100 & Tecsun S-2000.
Antena: Longwire.

____________________________________________

SEQ. FREQ DATA UTC EMISSORA DETALHES SINPO

001 9335 17/11/2018 0002 Voice of América (USA) Em Burmese, locução masculina, Talks, notícias (presumo) 35343
002 9470 17/11/2018 0009 China Radio Internacional (CHINA) Em Mongolian, locução OM/YL, divulgando notícias, 45344
003 9590 17/11/2018 0017 China Radio Internacional (CHINA) Em Espanhol, locução OM/YL, Id “Radio Internacional da China”, 55455
004 9800 17/11/2018 0028 China Radio Internacional (CHINA) Em Espanhol, locução OM/YL, notícias, fazendo referências ao México, 55555
005 9820 17/11/2018 0038 CNR 2 China Business Radio (CHINA) Em Mandarin, Locução OM, Talks. 55455
006 9890 17/11/2018 0103 China National Radio 13 (CHINA) Em Uighur, locução OM/YL, notícias (presumo) 45454
007 9440 17/11/2018 0110 China Radio Internacional (CHINA) Em Russo, locução YL, referindo-se ao Pres. da Russia, Vladmir Putin, 55555
008 9450 17/11/2018 0123 CNR 1 Jammer/Fredrade (CHINA) Em Mandarin, locução OM/YL, notícias. 55555
009 6190 17/11/2018 0209 La Voz Alegre (Madasgascar) Em Espanhol, locução OM, referências as Olimpíadas, Id, La Voz Alegre, 55555
010 9515 17/11/2018 1954 Rádio Marumby (BRASIL) Em Português, locução OM, música Gospel, hino, 45444
011 9550 17/11/2018 2001 Rádio Boa Vontade (BRASIL) Em Português, Locução OM, fazendo uma oração, 45544
012 9630 17/11/2018 2009 Rádio Aparecida (BRASIL) Em Português, transmissão da Missa de Aparecida., 45444
013 9665 17/11/2018 2048 Rádio Voz Missionária (BRASIL) Em Português, apresentando canções evangélicas, 55555
014 9690 17/11/2018 2055 Voice of Nigéria (NIGÉRIA) Em Houssa, locução OM, Talks, me parecendo divulgação de notícias, 45454
015 9790 17/11/2018 2103 Radio France Internacional (FRANÇA) Em France, locução OM/YL, Talks, notícias. 45444
016 11910 17/11/2018 2255 KBS World Radio (SOUTH KOREA) Em Inglês, locução YL, musicas, Id “KBS World Radio”, 55555
017 11840 17/11/2018 2304 Radio Havana Cuba (CUBA) Em Espanhol, locução OM/YL, Noticias Id “Radio Havana Cuba”, 35433
018 11840 17/11/2018 2310 NHK Radio Japan (JAPAN) Em Japonês, locução OM, Talks. 35433
019 11925 17/11/2018 2318 China National Radio 1 (CHINA) Em Mandarin, locução, OM/Talks, noticias “presumo”, 55555
020 11760 17/11/2018 2325 Radio Havana Cuba (CUBA) Em Espanhol, falando sobre o Presidente da Venezuela, “Maduro”, 35433
021 11700 17/11/2018 2330 Radio Havana Cuba (CUBA) Em Português, fazendo encerramento da transmissão. 35333
022 11895 18/11/2018 1607 Rádio Boa Vontade (BRASIL) Em Português, apresentando músicas Gospel, 25322
023 11850 18/11/2018 1615 Voice of América (USA) Em Kinya, locução OM, Talks, 25222
024 13605 18/11/2018 1625 All India Radio (INDIA) Em Hindi, locução YL, Talks, música regional, 45434
025 15490 18/11/2018 1658 Adventist World Radio (USA) Em Somali, locução, OM, música, Talks 35333
026 17560 18/11/2018 1710 BSKSA Holy Quran (SAUDI ARABIA) Em Árabe, locução, OM, Talk, me parecendo uma leitura. 55545
027 17655 18/11/2018 1730 Voice of America (USA) Em Português, locução OM/YL, música, locutora ref a Guiné Bissau, 35433
028 9770 18/11/2018 1943 China Radio Internacional (CHINA) Em Cantonese, locução YL, notícias, presumo. 45444
029 9745 18/11/2018 1949 China Radio Internacional (CHINA) Em Esperanto, locução OM/YL, Identificação, fez refência a Roma, Italia, 45544
030 9730 18/11/2018 1956 Voice of America (USA) Em Português, locução OM, música, finalizou o programa., 55555
031 9425 18/11/2018 2032 Voice of Korea (SOUTH KOREA) Em Coreano, transmitindo músicas erudita, 45454
032 7205 18/11/2018 2135 Radio France Internacional (FRANCE) Em Francês, locução OM, notícias diversas, 55555
033 6100 18/11/2018 2345 China Radio Internacional (CHINA) Em Português, locução OM, apresentando uma série musical, 45444
034 6010 19/11/2018 0135 Radio Inconfidência de BH (BRASIL) Em Português, Identificação, mx, as mais, mais, com Ramos Pereira, 45454
035 6025 19/11/2018 0145 RED. Patria Nueva (BOLIVIA) Em Espanhol, locução OM, Talks, notícias, 25232
036 7220 19/11/2018 0152 CNR 2 China Business Radio (CHINA) Em Mandarin, locução OM, divulgação de notícias, presumo, 35333
037 7305 19/11/2018 0158 Rádio Vaticano (CIDADE DO VATICANO) Em Espanhol, locução OM/YL, falando sobre recursos Naturais, 35233
038 9820 19/11/2018 1754 Rádio 9 de Julho (BRASIL) Em Português, apresentando uma seq. musical, com Roberto Carlos. Id 55555
039 11750 19/11/2018 1800 BSKSA Al-AZM Radio (SAUDI ARABIA) Em Árabe, locução OM/YL, Talks. 45444
040 15409 19/11/2018 1855 BBC (UK) Em Inglês, locução OM/YL, divulgando notícias. As 1900 encerou Tx. 55555
041 9730 19/11/2018 1903 China Internacional Radio (CHINA) Em Português, locução OM/YL, Talks, 55445
042 13640 20/11/2018 1917 All India Radio Gos (INDIA) Em Árabe, Músicas Indianas, em seguida, Talks com locução OM. 55545
043 9710 20/11/2018 0244 China Radio Internacional (CHINA) Em Espanhol, locução YL, fazendo referência a Europa e África. 55555
044 9690 20/11/2018 0250 Radio Exterior da Espanha (SPAN) Em Espanhol, locução OM, Identificação, notícias Turísticas, 55455
045 9590 20/11/2018 0256 China Radio Internacional (CHINA) Em Espanhol, locução OM, anunciando o Ponto de Contato, 55555
046 11730 20/11/2018 0300 China Radio Internacional (CHINA) Em Nepali, locução YL, notícias “presumo”, em seguida, músicas, 45545
047 11800 20/11/2018 0307 Radio Romênia Internacional (ROMANIA) Em Espanhol, locução YL, dando a previsão do tempo, 34534
048 13670 20/11/2018 1446 China Radio Internacional (CHINA) Em Francês, apresentando músicas, locução OM, música. 35333
049 15435 20/11/2018 1635 BSKSA 1 (SAUDI ARABIA) Em Árabe, locução OM/YL, Talks, notícias, presumo, 55555
050 15410 20/11/2018 1650 BB (UK) Em Inglês, locução OM, uma entrevista sobre o futebol do Senegal, 45544
051 15300 20/11/2018 1657 Radio France (FRANCE) Em Haussa, locução OM/YL, transmitindo notícias, 45444
052 7295 20/11/2018 1925 China Radio Internacional (CHINA) Em Inglês, locução OM, Talks, fazendo referências aos USA e Japão, 45434
053 11965 20/11/2018 2148 WMV Christian Radio (USA) Em Português, locução OM, programa “palavras alegres”, 35433
054 7385 21/11/2018 0007 PBS Xizang (CHINA) Em Tibetan, locução OM, Talks. 35333
055 5910 22/11/2018 0114 Radio Romênia Internacional (ROMANIA Em Romania, locução OM/Talks, em seguida, músicas, 35433
056 5940 22/11/2018 0129 Rádio Voz Missionária (BRASIL) Em Português, locução, apresentando músicas gospel, 55545 057 6180 22/11/2018 0137 Rádio Nacional da Amazônia (BRASIL) Em Português, locução, transmissão do Jogo, Flamengo x Grêmio, 45444
058 9850 22/11/2018 1940 Adventist World Radio (USA) Em Ibo, locução YL, Talks, 35333
059 9860 22/11/2018 1947 Rádio Free Ásia (USA) Em Mandarin, apresentando música instrumental, 55555
060 9870 22/11/2018 1953 BSKSA 1 (SOUDI ARABIA) Em Arabe, apresentando música Arabe, 55555
061 9885 22/11/2018 1959 Voice of América (UK) Em KinyaRwanda, locução OM, Talks. 45434
062 9410 22/11/2018 2008 Rádio Free Ásia (USA) Em Mandarin, apresentando música instrumental, 55555
063 7535 22/11/2018 2008 Rádio Free Ásia (USA) Em Mandarin, apresentando música instrumental, 55555
064 9535 22/11/2018 2008 Rádio Free Ásia (USA) Em Mandarin, apresentando música instrumental, 55555
065 9585 22/11/2018 2024 China Rádio Internacional (CHINA) Em Serbian, apresentando música. Em seguida, YL e OM, Talks, 55555
066 9585 22/11/2018 2024 China Rádio Internacional (CHINA) Em Serbian, apresentando música. Em seguida, YL e OM, Talks, 45444
067 7335 22/11/2018 2035 China Rádio Internacional (CHINA) Em Mandarin, locução OM/YL, Talks, 45545
068 7345 22/11/2018 2039 China Rádio Internacional (CHINA) Em Italiano, locução OM, fazendo referência a china 44544
069 7365 22/11/2018 2103 Rádio Vaticano (CITY OF VATICANO) Em Português, locução, OM/YL, referiu-se sobre o feriado da C. Negra, 55555
070 15640 22/11/2018 2349 FEBC Manila (PHILLIPPINES) Em Burmese, locução, OM, Talks, 35333
071 12055 22/11/2018 2349 FEBC Manila (PHILLIPPINES) Em Tai-lu/lu, locução OM, Talks, em seguida, música, 35433

Dexista: Francisco Jacson Dos Santos – PY1346SWL (5.210 pontos)
Local das escutas: Iguaba Grande, Rio de Janeiro – Brasil
Receptor: Yaesu FRG 07
Antena: Delta Loop + 3x5/8

____________________________________________

Seq. Freq. (kHz), Data, Hora (UTC), Emissora/Detalhes, SINPO

01 – 6135 18/11/18 0900 B Rádio Aparecida, sem sinal, idioma português, 11111
02 – 9650 18/11/18 0905 GUI Rádio Guiné, mv comentários em idioma francês, 44433
03 – 9665 18/11/18 0910 B Rádio Voz Missionária, mx gospel, id. a rádio que toca você, 44444
04 – 6195 18/11/18 0915 J NHK Rádio Japão, px Ponto de Encontro, entrevistando crianças, mx, id, 44433
05 – 9440 18/11/18 0930 CHN Rádio Internacional da China (CRI), mv, fv, comentários em idioma chinês, 44444
06 – 9415 18/11/18 0935 CHN Rádio Internacional da China (CRI), fv, mv, comentários em idioma inglês, 44433
07 – 9490 18/11/18 0940 CHN PBS Xizang, mx, fv, mv, comentários em idioma tibetano, 33322
08 – 9515 18/11/18 0945 B Rádio Marumby, sinal muito fraco, idioma português, 11111
09 – 9790 18/11/18 0950 USA Rádio Voz da América (VOA), mv, fv, comentários em idioma mandarim (chinês), 44444
10 – 9810 18/11/18 0955 CHN Rádio Nacional da China 2 China Business (CNR2), mv, fv, idioma mandarim (chinês), 44433
11 – 9820 18/11/18 1000 B Rádio 9 de Julho, sinal muito fraco não dava para compreender o que estavam falando, idioma português, 11111
12 – 9685 18/11/18 1745 CHN Rádio Internacional da China (CRI), fv, mv, comentários em idioma hausa, 44444
13 – 9695 18/11/18 1750 CHN Rádio Internacional da China (CRI), mv, fv, comentários em idioma mandarim (chinês), 44444
14 – 9690 18/11/18 1855 NIG Rádio Voz da Nigéria, mv, comentários em idioma inglês, 44444
15 – 9680 18/11/18 1900 TWN Rádio Taiwan Internacional (RTI), fv, comentários em idioma francês, 44444
16 – 9770 18/11/18 1905 CHN Rádio Internacional da China (CRI), fv, mv, comentários em idioma cantonês, 44444
17 – 9850 18/11/18 1910 IRN Rádio República Islâmica do Irã (IRIB), mv, comentários em idioma hausa, 44444
18 – 6120 18/11/18 1915 USA Adventist World Radio (AWR), fv, mv, comentários em idioma árabe, 44433
19 – 9745 18/11/18 2020 CHN Rádio Internacional da China (CRI), mv, fv, comentários em idioma esperanto, 44444
20 – 7235 18/11/18 2025 ROU Rádio Romênia Internacional (RRI), px Club de Oyentes, apresentação Victoria Sepcius, id, idioma espanhol, 44433
21 – 6010 18/11/18 2030 CLM Rádio La Voz de tu Consciencia, mv, comentários em idioma espanhol, 33222
22 – 9410 18/11/18 2035 CHN Rádio Nacional da China 1 Jammer/Firedrake, mx, em idioma mandarim (chinês), 33333
23 – 7205 18/11/18 2110 F Rádio França Internacional (RFI), mv, comentários em idioma francês, 44444
24 – 6115 18/11/18 2120 CHN Rádio Internacional da China (CRI), mx, comentários em idioma francês, 44444
25 – 6020 18/11/18 2125 CHN Rádio Internacional da China (CRI), fv, mv, px “Punto de Contacto”, comentários sobre agrotóxicos e plantações inteligentes, em idioma espanhol, 44444
26 – 7310 18/11/18 2130 ROU Rádio Romênia Internacional (RRI), fv, comentários em idioma inglês, 33333
27 – 7445 18/11/18 2135 CHN Rádio Internacional da China (CRI), mv, comentários em idioma húngaro, 44433
28 – 9565 18/11/18 2140 USA Rádio Martí, mv, Os cinco Livres, movimentos LGBTs, entrevista a Franklin, idioma espanhol, 44444
29 – 9790 18/11/18 2145 F Rádio França Internacional (RFI), mv, comentários em idioma francês, 44444
30 – 11965 18/11/18 2150 MDG Rádio Palavra Alegre (Voz alegre), mx gospel, px palavra alegre, idioma português, 44444
31 – 11925 18/11/18 2155 CHN Rádio Internacional da China (CRI), fv, comentários em idioma chinês, 44433
32 – 11840 18/11/18 2200 CUB Rádio Havana Cuba (RHC), mv, fv, comentários sobre a vida de Santiago de Cuba, idioma espanhol, 44444
33 – 11800 18/11/18 ROU 2205 Rádio Romênia Internacional (RRI), fv, comentários dobre o Centro Histórico Medieval urbano “Torre do Relógio”, Torre de Vlad o “Drácula”, px Club de Oyentes, id, Rádio Romênia Internacional completa 90 anos de transmissão para o mundo, idioma espanhol, 44444
34 – 6100 18/11/18 2335 CHN Rádio Internacional da China (CRI), mx, px top 10 (Ranking Nacional) da semana das músicas chinesas, idioma português, 44444
35 – 7250 24/11/18 2305 CHN Rádio Internacional da China (CRI), mv, fv, comentários sobre a realidade virtual entre as crianças, px ritmos da china, em idioma espanhol, 44444
36 – 7300 24/11/18 2310 CHN Rádio Internacional da China (CRI), fv, mv, comentários em idioma chinês, 44433
37 – 7350 24/11/18 2315 CHN Rádio Internacional da China (CRI), fv, mv, comentários em idioma inglês, 44444
38 – 7435 24/11/18 2320 VTN Rádio A Voz do Vietnã (VOV), mv, fv, comentários em idioma vietnamita, 44433
39 – 9450 24/11/18 2325 TWN Rádio Taiwan Internacional (RTI), fv, mv, comentários em idioma mandarim, 44444
40 – 9565 24/11/18 2330 USA Rádio Martí, sinal muito fraco, 11111
41 – 11855 24/11/18 2335 B Rádio Aparecida, px com a Mãe Aparecida, locutor manda alô para alguns ouvintes, 33333
42 – 9790 25/11/18 0931 USA Rádio Voz da América (VOA), fv, mv, comentários em idioma mandarim, 44444
43 – 17805 25/11/18 0945 ARS Rádio BSKSA (Arábia Saudita), fv, mv, comentários em idioma árabe, 44433
44 – 15640 25/11/18 1015 USA Rádio Liberty, mv, fv, comentários em idioma pasto, 33322
45 – 15150 25/11/18 1035 USA Rádio Voz da América (VOA), fv, mv, comentários em idioma mandarim, 44444
46 – 9980 25/11/18 2150 USA WWCR 4 Nashville, mv, comentários em idioma inglês, 33322
47 – 9955 25/11/18 2155 USA Rádio Miami Internacional (WRMI), mv, comentários em idioma inglés, 44333
48 – 9870 25/11/18 2200 ARS Rádio BSKSA (Arábia Saudita), mx árabe, em idioma árabe, 44444
49 – 9860 25/11/18 2205 CHN Rádio Internacional da China (CRI), fv, mv, comentários em idioma esperanto, 44444
50 – 9720 25/11/18 2215 CUB Rádio Havana Cuba (RHC), fv, mv, comentários em idioma inglês, 44433
51 – 9685 25/11/18 2220 CHN Rádio Internacional da China (CRI), mv, comentários sobre os atletas de patinação, em idioma português, 33333
52 – 9350 25/11/18 2230 USA Rádio Brother Stair, mv comentários em idioma inglês, 44333
53 – 6135 25/11/18 2240 B Rádio Aparecida, comentários sobre a emissora, futura ministra... Cultura de Isolamento pelos povos indígenas, id, idioma português, 44444
54 – 9405 25/11/18 2250 PHL Rádio FEBC Manila, mv, fv, comentários em idioma mandarim, 44433
55 – 11940 25/11/18 2305 E Rádio Exterior da Espanha (REE), fv, mv, comentários em idioma inglês, 33333

Descrição das Abreviaturas:
FV – Voz Feminina
MV – Voz Masculina
MX – Músicas
Id – Identificação da emissora
PX – Programa

Dexista: Antonio Avelino da Silva (AAS) (PY7048SWL) (4.000 pontos)
Local das escutas: Caruaru, Pernambuco – Brasil
Receptor: DEGEN DE 1103
Antena: Telescópica

O DX Clube Sem Fronteiras parabeniza a todos os participantes e convida os demais amigos e apaixonados pelas ondas do “rádio” para participarem nas próximas edições dos concursos de escutas para valorizar ainda mais nosso maravilhoso hobby.


Antonio Avelino
Diretor
DX Clube Sem Fronteiras

Site: www.dxclubesemfronteiras.com
E-mail: dxclubesemfronteiras@hotmail.com

Endereço Postal
DX Clube Sem Fronteiras
Caixa Postal 77
CEP – 55002-970
Caruaru – Pernambuco – Brasil